Tracking 29781 objects as of 15-Oct-2024
HD Live streaming from Space Station
objects crossing your sky now

DELTA 1 DEB

Track DELTA 1 DEB now!
10-day predictions


NORAD ID: 5975
Int'l Code: 1970-021C
Perigee: 332.8 km
Apogee: 25,690.4 km
Inclination: 25.5 °
Period: 447.6 minutes
Semi major axis: 19382 km
RCS: 1.8414 m2 (large)
Launch date: March 20, 1970
Source: United States (US)
Launch site: AIR FORCE EASTERN TEST RANGE (AFETR)

Note: This is SATELLITE DEBRIS
Your satellite tracking list
Your tracking list is empty




NASA's NSSDC Master Catalog

Two Line Element Set (TLE):
1  5975U 70021C   24287.09654162  .00004563  00000-0  28792-2 0  9990
2  5975  25.4552 224.5265 6541335 137.0411 298.5404  3.21724802352956
Source of the keplerian elements: AFSPC